| time (UTC) | temp C | wind direction | speed KPH | gust KPH | rain 1hr cm | rain 24hr cm | rain mn cm | humidity % | barometer mb |
| 20260506223018 | 16 | 254 | 12.9 | 25.7 | 0.00 | 0.03 | 0.03 | 84 | 1009.2 |
| 20260506221518 | 16 | 202 | 12.9 | 24.1 | 0.00 | 0.03 | 0.03 | 85 | 1009.3 |
| 20260506220024 | 15 | 209 | 14.5 | 25.7 | 0.00 | 0.03 | 0.03 | 84 | 1009.3 |
| 20260506214526 | 15 | 194 | 11.3 | 24.1 | 0.00 | 0.03 | 0.03 | 84 | 1009.2 |
| 20260506213010 | 16 | 210 | 11.3 | 22.5 | 0.00 | 0.03 | 0.03 | 83 | 1009.0 |
| 20260506211521 | 16 | 165 | 11.3 | 22.5 | 0.00 | 0.03 | 0.03 | 81 | 1009.1 |
| 20260506210028 | 16 | 205 | 14.5 | 29.0 | 0.00 | 0.03 | 0.03 | 81 | 1008.9 |
| 20260506204523 | 16 | 199 | 9.7 | 20.9 | 0.00 | 0.03 | 0.03 | 83 | 1008.7 |
| 20260506203035 | 16 | 216 | 9.7 | 27.4 | 0.00 | 0.03 | 0.03 | 84 | 1008.9 |
| 20260506201514 | 15 | 148 | 11.3 | 27.4 | 0.00 | 0.03 | 0.03 | 85 | 1008.9 |
| 20260506200015 | 15 | 216 | 11.3 | 25.7 | 0.00 | 0.03 | 0.03 | 85 | 1009.1 |
| 20260506194521 | 15 | 186 | 12.9 | 27.4 | 0.00 | 0.03 | 0.03 | 86 | 1009.1 |
| 20260506193023 | 15 | 195 | 16.1 | 33.8 | 0.00 | 0.03 | 0.03 | 85 | 1009.6 |
| 20260506191528 | 15 | 207 | 17.7 | 35.4 | 0.00 | 0.03 | 0.03 | 86 | 1009.7 |
| 20260506190013 | 15 | 240 | 17.7 | 37.0 | 0.00 | 0.03 | 0.03 | 87 | 1009.7 |
| 20260506184522 | 15 | 224 | 16.1 | 30.6 | 0.03 | 0.03 | 0.03 | 89 | 1010.1 |
| 20260506183025 | 14 | 198 | 14.5 | 35.4 | 0.03 | 0.03 | 0.03 | 89 | 1010.2 |
| 20260506181504 | 14 | 207 | 12.9 | 24.1 | 0.03 | 0.03 | 0.03 | 89 | 1010.1 |
| 20260506180012 | 14 | 210 | 17.7 | 35.4 | 0.03 | 0.03 | 0.03 | 88 | 1010.6 |
| 20260506174504 | 14 | 238 | 14.5 | 29.0 | 0.00 | 0.00 | 0.00 | 87 | 1010.8 |
| 20260506173013 | 15 | 216 | 14.5 | 27.4 | 0.00 | 0.00 | 0.00 | 87 | 1010.9 |
| 20260506171511 | 15 | 188 | 11.3 | 25.7 | 0.00 | 0.00 | 0.00 | 86 | 1010.9 |
| 20260506170005 | 15 | 225 | 12.9 | 32.2 | 0.00 | 0.00 | 0.00 | 84 | 1011.2 |
| 20260506164508 | 15 | 219 | 14.5 | 30.6 | 0.00 | 0.00 | 0.00 | 84 | 1011.5 |
| 20260506163008 | 15 | 223 | 16.1 | 29.0 | 0.00 | 0.00 | 0.00 | 83 | 1011.8 |
| 20260506161506 | 15 | 202 | 16.1 | 30.6 | 0.00 | 0.00 | 0.00 | 82 | 1011.8 |
| 20260506160008 | 15 | 203 | 16.1 | 30.6 | 0.00 | 0.00 | 0.00 | 82 | 1012.0 |
| 20260506154507 | 15 | 214 | 14.5 | 30.6 | 0.00 | 0.00 | 0.00 | 81 | 1012.1 |
| 20260506153008 | 16 | 215 | 12.9 | 30.6 | 0.00 | 0.00 | 0.00 | 80 | 1012.3 |
| 20260506151509 | 16 | 219 | 14.5 | 29.0 | 0.00 | 0.00 | 0.00 | 79 | 1012.1 |
| 20260506150008 | 16 | 209 | 12.9 | 29.0 | 0.00 | 0.00 | 0.00 | 81 | 1012.3 |
| 20260506144508 | 16 | 192 | 14.5 | 29.0 | 0.00 | 0.00 | 0.00 | 81 | 1012.5 |
| 20260506143017 | 16 | 219 | 16.1 | 30.6 | 0.00 | 0.00 | 0.00 | 81 | 1012.4 |
| 20260506141512 | 16 | 207 | 19.3 | 30.6 | 0.00 | 0.00 | 0.00 | 81 | 1012.4 |
| 20260506140014 | 15 | 230 | 17.7 | 27.4 | 0.00 | 0.00 | 0.00 | 83 | 1012.4 |
| 20260506134513 | 15 | 202 | 14.5 | 29.0 | 0.00 | 0.00 | 0.00 | 84 | 1012.5 |
| 20260506133009 | 15 | 208 | 11.3 | 27.4 | 0.00 | 0.00 | 0.00 | 83 | 1012.7 |
| 20260506131516 | 15 | 240 | 16.1 | 30.6 | 0.00 | 0.00 | 0.00 | 83 | 1012.9 |
| 20260506130012 | 15 | 191 | 16.1 | 29.0 | 0.00 | 0.00 | 0.00 | 84 | 1012.9 |
| 20260506124516 | 15 | 200 | 14.5 | 30.6 | 0.00 | 0.00 | 0.00 | 85 | 1012.8 |
| 20260506123016 | 14 | 204 | 14.5 | 37.0 | 0.00 | 0.00 | 0.00 | 86 | 1012.8 |
| 20260506121513 | 14 | 219 | 19.3 | 43.5 | 0.00 | 0.00 | 0.00 | 86 | 1012.8 |
| 20260506120019 | 14 | 227 | 14.5 | 29.0 | 0.00 | 0.00 | 0.00 | 86 | 1012.5 |
| 20260506114517 | 14 | 195 | 11.3 | 30.6 | 0.00 | 0.00 | 0.00 | 88 | 1012.6 |
| 20260506113018 | 13 | 168 | 11.3 | 29.0 | 0.00 | 0.00 | 0.00 | 88 | 1012.5 |
| 20260506111521 | 13 | 229 | 12.9 | 29.0 | 0.00 | 0.00 | 0.00 | 89 | 1012.6 |
| 20260506110015 | 13 | 201 | 14.5 | 27.4 | 0.00 | 0.00 | 0.00 | 89 | 1012.6 |
| 20260506104518 | 13 | 205 | 14.5 | 32.2 | 0.00 | 0.00 | 0.00 | 89 | 1012.7 |
| 20260506103021 | 13 | 205 | 14.5 | 27.4 | 0.00 | 0.00 | 0.00 | 89 | 1012.5 |
| 20260506101533 | 13 | 200 | 17.7 | 30.6 | 0.00 | 0.00 | 0.00 | 89 | 1012.4 |
| 20260506100023 | 13 | 196 | 17.7 | 32.2 | 0.00 | 0.00 | 0.00 | 89 | 1012.4 |
| 20260506094526 | 13 | 178 | 14.5 | 32.2 | 0.00 | 0.00 | 0.00 | 89 | 1012.2 |
| 20260506093033 | 13 | 198 | 14.5 | 32.2 | 0.00 | 0.00 | 0.00 | 89 | 1012.2 |
| 20260506091525 | 13 | 207 | 12.9 | 30.6 | 0.00 | 0.00 | 0.00 | 89 | 1012.5 |
| 20260506090011 | 13 | 198 | 16.1 | 27.4 | 0.00 | 0.00 | 0.00 | 89 | 1012.7 |
| 20260506084516 | 13 | 204 | 14.5 | 30.6 | 0.00 | 0.00 | 0.00 | 89 | 1012.8 |
| 20260506083022 | 13 | 215 | 11.3 | 25.7 | 0.00 | 0.00 | 0.00 | 89 | 1012.9 |
| 20260506081532 | 13 | 215 | 12.9 | 29.0 | 0.00 | 0.00 | 0.00 | 89 | 1012.8 |
| 20260506073033 | 13 | 202 | 11.3 | 30.6 | 0.00 | 0.00 | 0.00 | 88 | 1012.8 |
| 20260506071524 | 13 | 220 | 16.1 | 33.8 | 0.00 | 0.00 | 0.00 | 88 | 1013.0 |
| 20260506061520 | 13 | 191 | 14.5 | 35.4 | 0.00 | 0.00 | 0.00 | 86 | 1013.0 |
| 20260506044551 | 14 | 213 | 19.3 | 35.4 | 0.00 | 0.00 | 0.00 | 84 | 1013.6 |
| 20260506043026 | 14 | 207 | 19.3 | 33.8 | 0.00 | 0.00 | 0.00 | 84 | 1013.5 |
| 20260506041516 | 14 | 184 | 16.1 | 38.6 | 0.00 | 0.00 | 0.00 | 83 | 1013.6 |
| 20260506040017 | 14 | 190 | 16.1 | 35.4 | 0.00 | 0.00 | 0.00 | 83 | 1013.5 |
| 20260506034543 | 14 | 202 | 16.1 | 32.2 | 0.00 | 0.00 | 0.00 | 83 | 1013.5 |
| 20260506031528 | 14 | 198 | 14.5 | 30.6 | 0.00 | 0.00 | 0.00 | 83 | 1013.7 |
| 20260506030028 | 14 | 225 | 14.5 | 32.2 | 0.00 | 0.00 | 0.00 | 83 | 1013.7 |
| 20260506024520 | 14 | 192 | 17.7 | 27.4 | 0.00 | 0.00 | 0.00 | 83 | 1013.7 |
| 20260506023025 | 14 | 227 | 12.9 | 32.2 | 0.00 | 0.00 | 0.00 | 83 | 1013.7 |
| 20260506021525 | 14 | 146 | 16.1 | 32.2 | 0.00 | 0.00 | 0.00 | 82 | 1013.7 |
| 20260506020010 | 14 | 208 | 12.9 | 37.0 | 0.00 | 0.00 | 0.00 | 82 | 1013.7 |
| 20260506014520 | 14 | 217 | 14.5 | 29.0 | 0.00 | 0.00 | 0.00 | 82 | 1013.6 |
| 20260506013019 | 14 | 153 | 16.1 | 32.2 | 0.00 | 0.00 | 0.00 | 82 | 1013.4 |
| 20260506011507 | 14 | 210 | 12.9 | 29.0 | 0.00 | 0.00 | 0.00 | 82 | 1013.4 |
| 20260506010012 | 13 | 191 | 16.1 | 30.6 | 0.00 | 0.00 | 0.00 | 83 | 1013.3 |
| 20260506004529 | 14 | 196 | 12.9 | 30.6 | 0.00 | 0.00 | 0.00 | 83 | 1013.2 |
| 20260506003035 | 14 | 196 | 14.5 | 32.2 | 0.00 | 0.00 | 0.00 | 82 | 1013.1 |
| 20260506001523 | 14 | 224 | 12.9 | 33.8 | 0.00 | 0.00 | 0.00 | 82 | 1012.9 |
| 20260506000005 | 14 | 217 | 14.5 | 30.6 | 0.00 | 0.00 | 0.00 | 80 | 1012.8 |
| 20260505234510 | 15 | 188 | 17.7 | 35.4 | 0.00 | 0.00 | 0.00 | 80 | 1012.8 |
| 20260505233012 | 15 | 189 | 19.3 | 33.8 | 0.00 | 0.00 | 0.00 | 78 | 1012.7 |
| 20260505231521 | 16 | 192 | 17.7 | 33.8 | 0.00 | 0.00 | 0.00 | 75 | 1012.6 |
| 20260505230021 | 16 | 214 | 17.7 | 43.5 | 0.00 | 0.00 | 0.00 | 71 | 1012.5 |
| 20260505224508 | 17 | 225 | 17.7 | 37.0 | 0.00 | 0.00 | 0.00 | 70 | 1012.4 |